RH
98 100 100 96 55 36 32 55 92 100 100 100 100 100 100 100 100 100 100 100 100 100 100 100 100 95 96 94 87 85 91 96 97 98 100 96 93 94 94 100 100 100 100 100 100 100 100 100 96 98 100 100 94 94
100 92 97 77 38 29 33 33 33 66 100 100 100 100 100 100 100 100 96 100 97 98 96 100 100 100 100 98 97 95 92 89 88 89 91 96 93 95 98 93 100 92 100 100 100 97 100 100 100 100 97 96 100 100
97 99 97 65 32 28 27 37 34 49 90 100 100 100 100 100 100 100 100 100 100 99 92 92 100 100 99 100 99 100 100 99 96 100 100 98 89 84 79 75 72 73 84 92 98 97 98 100 100 99 100 100 100 100
95 98 78 44 41 41 44 37 36 36 54 89 100 100 100 100 100 100 100 100 100 100 98 78 85 98 100 100 100 100 98 100 100 100 100 99 96 100 90 92 82 64 71 72 66 57 52 52 52 55 74 92 97 100
18 23 26 28 30 41 66 49 32 36 33 59 100 100 100 100 100 100 100 100 100 100 99 89 86 84 97 100 100 100 100 100 100 98 97 100 100 100 100 100 80 59 52 46 40 34 34 27 26 28 26 24 25 29
52 36 28 37 54 85 100 100 100 100 100 99 99 100 100 100 100 100 93 94 100 100 99 94 97 98 100 97 92 100 100 100 100 100 100 97 91 95 78 62 50 39 44 44 37 26 21 21 21 40 68 53 100 100
65 70 76 65 43 49 72 87 91 100 91 100 100 93 100 94 93 94 90 96 96 93 81 65 54 66 72 73 72 81 88 81 84 87 80 83 68 68 52 43 35 50 62 58 62 63 48 51 95 98 88 100 100 100
100 89 65 62 63 67 69 63 60 67 70 76 78 77 82 87 86 84 81 83 80 73 70 74 95 79 100 100 96 100 98 90 75 66 57 59 62 60 43 57 61 91 100 73 100 100 94 96 100 100 100 99 100 100
95 88 94 97 94 82 68 60 54 57 69 75 78 62 42 43 45 51 56 61 73 75 98 90 90 100 96 92 88 87 83 77 75 74 79 70 61 50 66 77 72 73 77 64 94 93 79 85 79 64 60 60 66 69
74 90 84 80 82 81 83 80 66 41 35 34 43 55 30 21 27 28 34 49 75 60 52 58 79 90 88 86 84 85 78 81 60 57 61 47 41 63 81 58 37 42 64 70 72 99 93 82 78 77 82 66 57 64
38 36 34 35 36 38 40 45 47 49 45 45 47 46 40 37 34 30 29 26 34 32 40 49 69 76 81 72 62 50 43 44 38 44 51 45 52 82 93 90 57 49 55 56 78 94 85 76 86 100 100 98 84 79
54 61 59 53 46 40 40 38 36 34 32 33 33 34 37 46 53 48 59 57 56 49 46 42 38 38 37 42 46 46 48 48 48 58 59 54 71 78 95 94 98 87 58 54 54 57 62 83 98 97 100 87 65 70
73 90 81 73 53 41 34 31 29 27 25 22 24 23 25 33 32 38 50 69 72 72 76 75 69 61 59 71 65 68 68 67 72 70 68 79 91 86 86 87 95 99 100 100 99 99 100 100 98 98 99 99 86 60
62 88 99 97 94 75 55 42 34 29 27 27 26 26 27 25 23 22 21 21 22 26 38 56 82 87 99 100 100 100 100 98 94 84 85 88 92 94 96 96 97 100 100 100 100 100 99 97 96 94 95 99 99 96
82 66 60 62 71 83 88 84 68 49 40 37 37 33 34 29 26 24 23 22 19 18 18 17 19 21 29 44 56 82 96 90 85 73 81 92 95 90 83 84 92 97 99 100 100 100 94 86 84 84 65 70 79 80
92 91 88 88 88 86 84 84 86 86 70 61 54 39 40 42 36 32 30 24 23 23 23 22 19 18 22 42 73 95 96 96 100 100 100 100 100 100 100 90 75 71 66 66 68 68 66 60 55 53 46 35 34 38
95 91 87 82 83 85 85 85 90 96 91 90 77 57 50 49 50 45 38 32 28 27 21 18 18 21 24 31 30 37 54 59 60 64 62 57 50 43 46 48 56 59 58 53 52 44 38 35 33 32 31 31 29 30
90 83 79 79 86 91 93 95 95 95 98 100 98 88 83 74 65 55 40 33 26 20 17 16 18 19 22 24 26 28 30 31 32 31 32 32 30 30 30 32 36 36 36 36 36 34 33 32 31 30 28 27 27 27
76 75 79 85 92 96 96 97 97 94 96 94 93 89 79 67 54 41 29 21 18 17 17 19 20 21 23 25 29 35 37 35 36 38 37 38 36 37 37 30 26 24 24 25 26 27 28 28 28 27 26 25 24 24
97 94 91 93 97 100 100 100 98 94 88 81 75 66 52 39 31 22 19 18 18 19 20 22 30 41 51 58 68 76 77 75 76 76 89 94 83 81 76 62 53 36 26 22 20 18 18 20 21 21 21 21 21 20
95 95 99 100 100 100 100 100 100 94 81 66 53 38 29 23 20 20 20 21 22 22 31 44 52 61 68 76 84 90 91 86 80 81 96 100 100 86 96 92 95 100 100 100 94 96 76 57 47 42 41 42 38 44
100 100 100 100 100 100 100 100 96 79 59 45 33 25 22 21 22 22 24 23 27 41 54 62 71 78 82 84 84 89 95 93 88 95 98 100 100 100 100 99 99 100 100 97 91 95 100 98 86 83 83 88 87 91
90 99 100 100 100 100 95 86 74 58 40 30 25 24 25 25 25 25 25 33 50 64 72 79 83 91 98 96 95 96 100 97 93 93 100 100 97 97 100 100 96 95 100 100 93 93 98 100 98 92 90 90 89 89
26 30 35 44 53 52 50 40 32 28 28 30 32 30 28 27 26 28 36 55 72 80 86 93 99 97 94 98 100 99 98 93 88 86 100 100 100 100 100 100 96 92 98 100 100 98 79 73 78 99 100 98 98 100
39 39 35 34 32 32 33 36 38 39 40 36 33 31 29 28 28 35 44 72 86 90 90 92 96 100 100 100 99 98 100 100 100 100 100 99 100 100 100 100 90 79 98 100 97 72 88 86 77 69 97 100 100 100
46 46 47 46 46 45 45 45 46 44 43 40 35 31 29 28 31 38 56 76 86 93 97 96 94 90 89 98 100 100 98 100 99 92 91 96 98 99 100 100 100 100 100 100 99 96 94 89 70 86 100 100 100 100
46 51 53 53 54 53 51 49 48 47 46 43 36 33 33 33 34 36 42 59 73 81 87 97 99 100 100 97 93 94 95 92 97 100 100 99 94 91 94 99 100 100 100 94 91 94 92 80 93 100 100 100 100 100
49 54 58 64 68 67 64 60 56 53 49 43 38 39 40 42 42 40 40 41 46 56 70 83 94 98 100 100 100 100 100 98 96 97 92 84 83 83 95 100 100 100 98 100 99 97 98 100 99 100 100 98 95 98
52 59 66 70 76 79 74 65 64 64 58 51 46 44 45 46 45 43 42 43 44 40 40 61 83 91 89 90 99 100 100 100 100 100 100 100 100 100 100 100 100 100 100 100 100 100 100 100 100 100 100 100 100 100
58 59 65 73 77 81 87 87 80 75 73 70 64 58 54 51 50 49 46 46 46 47 44 40 58 88 93 91 86 86 93 92 95 99 100 100 100 100 100 100 100 100 100 100 100 100 100 100 100 100 100 100 100 100
69 68 70 74 76 80 82 87 92 97 94 90 84 81 77 73 68 64 62 60 57 52 47 40 41 73 92 98 99 96 90 88 95 99 100 95 98 100 100 100 100 100 100 100 100 100 100 100 100 100 100 100 100 100
68 80 83 88 93 93 93 98 96 94 94 95 99 99 98 94 89 78 70 63 59 55 51 45 36 45 81 99 100 100 100 100 100 100 100 100 100 100 100 100 100 96 90 95 99 100 99 98 100 100 100 100 100 100
66 77 83 89 94 98 99 100 99 100 98 93 90 96 99 100 100 100 95 78 64 56 52 48 41 38 64 83 94 100 100 100 100 100 100 100 100 100 100 100 100 94 95 95 96 98 97 99 100 100 100 100 100 100
Wind_Speed
16 17 16 17 18 24 29 30 30 46 43 41 39 32 31 31 32 33 35 37 37 35 36 38 38 38 38 39 41 43 44 46 48 50 51 52 55 57 60 60 61 62 61 60 62 64 61 56 60 62 64 66 73 76
15 15 15 16 17 19 22 27 32 41 49 44 45 45 40 30 33 32 31 37 41 44 43 40 38 38 39 39 39 40 41 40 40 43 43 41 42 46 47 51 48 50 51 53 54 59 52 49 42 38 48 50 42 46
15 17 19 18 16 17 19 21 26 34 49 50 45 44 45 35 32 34 36 38 42 48 48 45 42 44 44 41 40 39 38 36 36 36 37 39 40 41 43 44 47 47 50 54 55 53 51 53 53 53 53 48 44 48
22 24 23 18 17 17 18 20 24 24 35 48 46 42 43 42 37 32 35 36 36 34 36 36 41 44 45 43 40 40 39 41 41 39 40 40 38 41 43 45 46 45 45 48 52 50 55 55 57 60 60 64 64 59
3 3 3 5 8 10 9 13 17 22 28 38 44 37 46 47 43 41 36 37 38 36 35 33 34 37 38 39 39 41 41 40 39 38 40 38 36 39 41 45 45 43 50 57 62 61 65 63 63 62 59 56 56 57
11 7 5 4 1 3 8 7 10 13 16 21 30 40 37 40 39 39 40 42 40 38 38 38 40 41 40 36 36 35 32 27 31 35 36 39 39 42 46 51 48 52 57 58 58 56 54 54 52 48 43 44 39 39
16 12 10 10 8 3 3 5 6 11 9 12 13 18 25 28 30 35 36 30 31 34 37 40 42 37 30 29 30 30 31 33 34 37 39 40 43 48 54 57 51 49 46 44 38 37 39 45 46 45 41 37 41 39
16 15 15 14 12 8 5 2 3 9 12 16 16 18 23 25 26 28 29 26 23 25 28 30 24 19 20 22 24 25 26 31 36 40 43 44 46 52 56 45 40 39 40 38 33 33 30 28 29 32 38 42 42 40
13 13 12 13 13 12 12 10 5 1 5 7 8 7 14 22 24 27 28 27 25 25 24 21 21 16 22 24 28 33 38 40 44 46 45 49 49 41 38 43 41 40 38 33 28 29 23 22 24 29 34 36 38 40
13 13 13 11 10 11 11 11 12 11 6 5 5 2 4 8 12 15 17 18 28 25 28 20 23 29 31 32 36 40 44 45 52 48 47 43 29 30 32 33 31 30 25 24 25 29 28 32 36 41 38 36 34 32
12 12 13 12 12 12 10 9 9 9 9 9 8 8 5 4 4 2 4 8 11 9 10 16 24 30 34 41 44 45 45 43 40 34 32 33 26 23 28 30 26 21 24 26 27 31 34 39 37 36 35 33 32 26
10 9 10 9 9 9 8 8 8 8 7 6 4 3 2 2 3 2 4 6 7 8 9 17 25 30 34 34 35 36 37 39 41 39 40 36 30 29 29 31 30 26 27 31 35 38 40 37 34 33 30 24 24 27
10 10 9 9 9 9 10 9 8 8 8 9 9 9 9 8 5 6 9 11 15 17 18 22 26 29 31 33 37 41 44 47 47 48 48 43 38 36 36 35 35 34 34 33 34 35 36 37 37 36 33 29 26 29
16 15 14 12 11 11 11 12 13 13 13 14 14 14 14 12 12 14 15 17 19 21 24 27 31 35 37 39 41 45 47 51 53 54 51 46 44 41 39 37 37 38 39 40 41 42 42 42 41 40 37 35 33 33
19 20 20 18 17 17 18 19 18 18 19 20 21 20 19 19 20 21 23 24 25 26 29 31 34 38 40 42 44 46 48 51 53 53 50 48 47 46 47 47 46 45 44 44 45 46 47 46 45 44 42 40 39 37
22 22 23 23 23 22 22 22 24 24 24 25 26 25 25 26 27 28 29 30 32 34 37 41 45 48 48 48 48 49 51 52 51 50 50 52 52 55 59 57 54 52 51 51 51 52 52 50 49 47 45 45 44 42
27 27 26 24 24 25 25 25 26 27 28 29 27 29 30 31 32 33 34 36 37 40 43 46 48 47 48 48 49 49 51 51 52 54 55 55 53 51 51 51 50 50 50 50 51 50 49 49 49 47 47 47 48 48
30 29 28 26 25 25 26 26 27 28 28 29 30 30 32 33 34 36 37 38 40 43 46 44 43 40 39 38 37 38 39 40 41 42 43 45 46 47 48 49 50 51 50 50 50 49 48 48 47 47 48 48 48 49
32 30 29 28 28 28 28 27 28 28 28 29 31 32 33 34 35 36 38 40 42 42 38 34 34 33 34 34 34 34 35 35 34 35 37 38 38 38 40 44 47 49 50 49 48 47 45 44 43 43 44 44 43 44
31 31 32 32 31 30 29 29 29 29 29 30 31 31 33 33 35 36 39 39 35 31 30 29 28 27 27 27 26 27 28 28 28 27 27 27 31 32 32 29 26 26 27 30 34 37 39 39 41 41 41 40 40 40
30 30 29 29 29 29 29 29 29 29 30 30 30 31 32 33 35 35 32 29 27 26 24 24 24 23 23 23 23 24 25 25 23 20 18 20 27 27 25 24 22 20 19 19 18 19 22 23 25 27 28 30 30 29
28 28 28 28 28 28 28 28 29 29 29 30 31 32 32 33 30 25 24 23 23 21 21 21 20 21 22 21 21 20 20 20 19 17 15 17 20 22 24 25 24 24 25 25 23 22 24 26 26 26 26 26 27 27
26 26 27 27 27 27 27 28 29 30 30 31 31 30 28 24 21 21 20 20 18 18 19 19 18 19 19 19 20 18 17 17 17 17 17 20 22 23 24 25 26 24 21 21 21 20 21 24 26 27 29 29 28 28
29 28 27 27 27 28 29 30 30 30 30 29 27 22 18 17 18 17 17 16 16 16 15 15 17 19 19 17 16 16 16 16 18 19 18 19 22 25 25 25 28 21 14 17 21 22 22 24 25 26 26 24 23 23
25 25 27 27 28 28 28 28 27 26 24 20 17 15 14 15 15 15 15 13 14 15 15 15 14 14 16 17 16 15 14 15 18 19 18 20 21 21 24 27 27 18 17 20 18 19 23 27 30 28 22 20 21 22
17 18 18 20 20 20 20 19 19 18 17 15 14 13 12 12 12 13 12 13 14 14 16 16 17 16 15 14 14 15 16 16 17 20 21 23 23 22 23 22 20 19 20 21 22 26 30 33 33 25 20 19 19 19
16 16 16 16 15 15 15 15 14 14 13 13 12 11 11 10 10 11 12 13 14 14 15 15 15 15 17 20 19 17 17 17 19 21 22 22 23 24 21 17 13 15 20 23 26 28 30 30 23 18 15 14 15 16
17 17 16 16 15 14 14 14 14 12 12 13 13 12 12 11 11 12 13 13 13 13 14 15 15 15 15 15 16 17 18 19 21 21 22 24 24 27 26 22 16 18 21 26 27 26 26 22 18 15 12 10 7 5
18 18 16 15 14 14 13 13 13 13 13 14 15 15 15 16 16 16 15 15 15 15 15 14 14 16 15 12 10 11 12 15 17 19 21 21 24 27 26 22 20 21 25 27 25 24 18 14 12 11 10 11 12 11
18 17 15 15 14 14 14 14 14 15 16 17 17 18 19 19 19 19 18 18 17 16 16 16 15 15 17 17 16 14 13 13 15 16 18 17 19 21 21 19 19 22 25 25 21 13 8 9 10 12 13 13 12 11
17 15 14 13 12 12 12 14 16 17 18 19 20 21 22 22 22 22 21 20 19 17 16 15 14 14 14 15 16 17 18 18 19 21 21 18 20 21 21 20 22 24 24 19 10 8 8 9 11 12 12 11 11 11
17 16 16 15 14 14 15 15 16 18 19 21 22 22 21 21 21 21 21 21 20 18 17 16 14 12 12 13 14 13 13 13 15 17 17 16 17 19 19 21 25 22 20 15 13 11 10 10 10 11 11 11 12 12
17 16 17 19 20 21 22 22 21 21 22 22 22 21 20 20 20 19 18 18 18 18 17 16 15 13 12 12 13 12 11 11 13 14 14 15 16 17 17 20 20 16 16 14 12 11 10 10 10 11 12 13 14 14
Wind_Direction
238 249 257 259 242 234 229 224 216 208 212 216 218 224 235 237 240 239 238 235 238 243 252 248 252 254 257 260 262 265 266 266 264 261 261 261 260 260 260 261 261 262 263 265 265 266 270 276 272 269 269 269 270 269
236 252 258 262 251 246 235 234 228 216 212 216 224 230 227 231 236 241 242 249 243 239 242 247 246 250 254 256 262 264 266 265 265 267 267 267 266 263 264 261 264 265 265 266 266 265 267 267 260 259 263 261 254 259
247 262 270 279 257 248 240 237 227 223 218 219 223 227 235 234 240 247 248 251 254 253 251 248 244 252 256 261 261 262 263 265 259 260 265 268 269 273 273 273 271 273 273 275 273 271 274 272 268 261 251 249 245 254
267 272 276 270 261 256 251 238 231 229 225 220 222 227 226 227 228 240 246 250 255 259 262 258 258 256 258 258 256 257 262 258 259 265 268 270 273 276 277 276 274 278 276 278 276 274 273 270 273 272 268 267 261 259
307 327 313 271 261 249 232 233 232 228 228 221 219 227 225 227 230 237 243 250 257 261 261 256 261 257 256 256 257 260 264 265 268 271 270 267 270 273 271 270 272 277 282 283 283 281 280 278 273 274 275 274 269 266
43 33 25 21 75 205 196 212 209 207 207 216 225 227 231 232 234 244 251 254 258 260 262 260 254 258 260 264 265 267 267 256 252 263 267 272 278 274 275 279 282 290 292 291 290 287 283 279 275 272 268 268 262 271
48 47 45 46 54 71 197 219 216 208 221 210 209 226 229 237 243 246 252 255 257 260 265 266 265 261 263 260 263 260 261 264 268 270 273 272 277 285 289 291 294 291 291 297 288 291 285 273 266 261 262 268 266 280
42 47 52 55 55 58 67 103 205 228 232 221 232 232 230 234 240 247 251 255 259 256 254 256 246 254 254 255 252 256 266 269 270 272 273 278 284 290 294 302 291 283 284 288 282 291 288 282 280 276 269 271 271 275
27 32 38 41 43 49 50 55 65 144 198 207 223 242 235 236 238 243 249 254 244 244 247 251 238 250 246 252 264 271 273 276 277 279 283 286 293 299 302 296 292 285 278 273 279 279 283 289 289 290 289 284 281 278
29 26 32 34 35 40 42 45 52 57 65 112 150 185 208 223 233 239 242 242 232 246 254 252 249 251 259 264 269 273 272 274 277 281 284 287 290 299 292 302 302 290 266 263 273 271 279 289 290 294 291 281 274 273
31 24 27 30 27 23 26 32 36 49 61 69 64 64 72 61 49 325 296 272 269 258 252 259 262 262 259 260 261 263 269 275 277 278 280 281 287 287 289 303 309 287 276 274 276 280 285 292 296 299 297 283 271 258
350 354 354 356 358 0 2 359 359 3 7 10 8 4 354 332 311 303 299 279 262 248 230 230 237 247 253 261 266 270 274 275 279 284 283 283 292 290 285 290 296 293 281 277 278 281 284 287 294 299 303 295 271 257
308 308 316 325 333 334 330 330 325 321 320 317 316 315 311 314 309 280 260 256 262 267 261 256 256 260 262 264 266 268 271 275 281 281 284 291 293 290 287 284 283 283 279 278 278 278 279 283 289 293 292 288 278 270
292 289 289 295 299 302 304 305 305 302 299 296 292 291 293 299 287 286 284 282 280 276 274 272 271 271 269 267 267 269 271 274 276 279 284 288 288 286 284 281 278 275 273 274 274 276 278 280 283 284 283 280 276 272
289 287 286 286 289 293 294 292 291 289 287 286 284 287 292 288 286 286 289 289 288 289 290 289 285 282 277 274 273 271 272 274 277 283 286 286 285 284 284 283 279 274 273 272 271 272 273 276 278 279 278 275 273 271
289 288 287 286 285 285 286 285 284 283 283 283 283 285 286 286 288 288 290 291 292 293 295 295 294 291 288 284 282 282 282 282 283 282 282 281 280 281 284 285 283 282 280 277 275 274 275 276 275 275 275 274 271 269
288 288 286 284 283 282 281 280 279 279 280 282 284 280 282 284 287 289 289 289 291 293 294 292 289 287 285 282 282 282 281 281 280 281 281 281 281 281 282 281 280 278 277 277 277 277 276 276 275 273 271 270 269 268
292 293 290 284 281 281 281 280 280 280 280 280 280 280 281 283 285 286 287 290 292 294 293 291 289 287 286 285 283 282 282 282 282 283 283 283 283 284 283 281 280 279 277 277 276 276 276 275 274 273 271 269 269 268
290 290 288 285 283 283 281 281 282 282 282 282 283 283 284 285 286 288 290 293 295 295 292 291 291 290 288 288 288 287 286 287 288 288 288 290 293 291 289 285 281 278 276 275 275 276 276 277 277 275 273 272 271 270
282 284 285 284 283 282 281 281 281 282 282 283 283 284 285 287 289 291 295 296 294 293 294 293 293 294 294 295 295 295 294 295 295 296 296 299 297 299 302 305 304 299 293 285 280 277 275 274 274 273 274 273 272 270
280 280 280 280 280 279 280 280 280 281 283 284 284 287 289 291 294 296 294 293 295 297 297 296 296 297 298 299 300 298 298 300 300 305 305 300 298 309 315 321 326 322 316 308 302 295 290 282 277 276 275 274 273 271
282 280 279 279 279 279 278 278 280 282 284 286 287 289 292 295 294 292 294 297 299 300 301 301 302 302 304 305 304 305 302 300 306 310 306 300 300 308 312 312 311 309 309 307 305 299 293 289 285 282 278 275 272 269
283 283 282 281 281 278 279 281 283 284 285 287 289 291 292 290 289 292 295 297 299 302 303 304 305 306 308 309 310 315 313 312 315 317 320 315 316 317 316 313 313 314 318 309 304 304 302 298 294 291 287 281 275 269
279 279 281 282 281 281 282 283 283 285 286 286 288 285 282 283 290 293 295 295 300 309 309 306 310 315 315 316 314 317 314 315 318 323 325 319 322 318 320 319 319 330 334 334 329 326 325 322 315 297 283 282 282 278
284 283 282 283 283 283 283 284 284 284 283 281 277 273 278 286 290 294 292 287 300 314 317 314 312 315 316 317 315 313 314 312 313 320 328 329 332 329 326 322 319 326 329 321 313 317 323 322 325 318 302 290 278 270
302 297 292 289 288 287 287 285 284 281 278 274 268 269 278 287 294 301 289 284 292 306 318 322 320 322 327 331 324 318 317 320 325 333 333 333 336 335 330 317 301 297 312 322 326 325 321 321 319 305 290 281 274 270
310 304 301 296 294 291 290 287 285 279 275 265 260 264 275 285 294 309 306 291 289 293 305 318 323 321 323 326 329 330 329 331 333 330 327 332 336 336 340 334 310 301 321 331 332 329 328 329 325 318 302 291 282 277
312 304 297 294 295 294 291 287 283 278 271 263 261 263 268 278 291 301 306 310 305 299 298 305 319 321 321 316 314 320 324 324 326 330 335 336 342 350 349 344 333 322 329 335 335 334 333 334 334 338 335 321 314 316
313 307 300 295 291 289 289 286 279 273 269 265 265 266 269 273 280 288 296 301 306 309 305 298 304 316 315 308 307 316 322 326 331 339 343 344 343 340 338 336 330 325 331 337 338 338 342 357 10 27 50 73 83 86
301 301 300 297 292 287 285 284 281 276 272 270 270 270 271 273 276 280 286 292 296 299 303 304 300 311 322 326 328 332 333 335 341 347 349 344 342 344 344 338 333 335 336 337 340 350 18 42 69 77 80 78 74 68
286 287 292 296 297 299 296 290 286 282 279 277 275 274 273 274 275 276 279 283 287 289 292 294 293 293 310 328 329 329 334 340 340 346 347 347 353 351 353 356 355 350 347 354 18 55 74 86 89 82 74 68 71 77
278 272 272 277 287 293 298 302 302 298 291 282 277 275 276 276 276 276 276 277 278 280 283 288 291 285 293 311 319 315 311 314 336 341 346 352 352 356 2 6 8 10 24 44 66 77 85 95 90 76 70 79 84 83
280 272 271 273 277 283 290 294 298 298 296 290 282 276 274 274 274 275 276 275 273 271 270 272 276 282 280 292 314 317 318 331 336 337 352 359 0 5 10 15 20 33 42 53 64 66 81 86 86 83 91 92 88 90